This is the latest recevied weather packets stored in our database for station/object SR9WXZ. If no packets are shown the sender has not sent any weather packets the latest 1 day(s).
| Time | Temp. | Humidity | Pressure | Rain* | Wind** | Luminosity | Snow |
|---|---|---|---|---|---|---|---|
| 1778016649 | 17.78° C | 100% | 0 hPa | - | 1.34 m/s, 151° | - | - |
| 1778016349 | 18.33° C | 100% | 0 hPa | - | 0.89 m/s, 168° | - | - |
| 1778016049 | 18.33° C | 100% | 0 hPa | - | 0.89 m/s, 142° | - | - |
| 1778015915 | 17.78° C | 100% | 0 hPa | - | 0.89 m/s, 172° | - | - |
| 1778015615 | 17.78° C | 100% | 0 hPa | - | 0.89 m/s, 173° | - | - |
| 1778015315 | 17.78° C | 100% | 0 hPa | - | 0.89 m/s, 173° | - | - |
| 1778015015 | 17.78° C | 100% | 0 hPa | - | 0.89 m/s, 168° | - | - |
| 1778014414 | 17.78° C | 100% | 0 hPa | - | 0.89 m/s, 144° | - | - |
| 1778014114 | 17.22° C | 100% | 0 hPa | - | 0.89 m/s, 144° | - | - |
| 1778013514 | 16.67° C | 100% | 0 hPa | - | 0.89 m/s, 133° | - | - |
| 1778013213 | 16.67° C | 100% | 0 hPa | - | 0.89 m/s, 147° | - | - |
| 1778012913 | 15.56° C | 100% | 0 hPa | - | 0.89 m/s, 161° | - | - |
| 1778012602 | 16.11° C | 100% | 0 hPa | - | 0.89 m/s, 161° | - | - |
| 1778012302 | 16.11° C | 100% | 0 hPa | - | 0.89 m/s, 161° | - | - |
| 1778012002 | 16.11° C | 100% | 0 hPa | - | 0.89 m/s, 161° | - | - |
| 1778011702 | 16.67° C | 100% | 0 hPa | - | 0.89 m/s, 161° | - | - |
| 1778011402 | 16.67° C | 100% | 0 hPa | - | 0.89 m/s, 161° | - | - |
| 1778011101 | 17.78° C | 100% | 0 hPa | - | 0.89 m/s, 165° | - | - |
| 1778010801 | 17.78° C | 100% | 0 hPa | - | 0.89 m/s, 167° | - | - |
| 1778010501 | 18.33° C | 100% | 0 hPa | - | 0.89 m/s, 167° | - | - |
| 1778010200 | 18.33° C | 100% | 0 hPa | - | 0.89 m/s, 156° | - | - |
| 1778009901 | 18.89° C | 100% | 0 hPa | - | 0.89 m/s, 154° | - | - |
| 1778009600 | 19.44° C | 100% | 0 hPa | - | 0.89 m/s, 185° | - | - |
| 1778009300 | 20° C | 100% | 0 hPa | - | 0.89 m/s, 185° | - | - |
| 1778009000 | 20° C | 100% | 0 hPa | - | 0.89 m/s, 185° | - | - |
* Rain since midnight (hover to see other rain measurements)
** Current wind speed in m/s (hover to see current wind gust speed)